Tyler, TX

7:49 AM CDT on July 25, 2017 (GMT -0500)
Tyler Pounds

Weather History for KTYR - July, 2012

Change the Weather History Date:

Friday, July 13, 2012

  Actual Average Record
Temperature  
Mean Temperature 80 °F 83 °F  
Max Temperature 87 °F 92 °F 106 °F (1930)
Min Temperature 73 °F 73 °F 60 °F (1947)
Degree Days  
Heating Degree Days 0 0  
Month to date heating degree days 0 0  
Since 1 June heating degree days 0 0  
Since 1 July heating degree days 0 0  
Cooling Degree Days 15 18  
Month to date cooling degree days 236 225  
Year to date cooling degree days 1409 1027  
Since 1 June cooling degree days 750 658  
Growing Degree Days 30 (Base 50)    
Moisture  
Dew Point 71 °F    
Average Humidity 75    
Maximum Humidity 93    
Minimum Humidity 57    
Precipitation  
Precipitation 0.00 in 0.09 in 3.65 in (1900)
Month to date precipitation 1.78 1.52  
Year to date precipitation 21.13 25.28  
Snow  
Snow 0.00 in - - ()
Month to date snowfall 0.0  
Since 1 June snowfall 0.0  
Since 1 July snowfall 0.0  
Snow Depth 0.00 in    
Sea Level Pressure  
Sea Level Pressure 29.98 in    
Wind  
Wind Speed 5 mph (East)    
Max Wind Speed 13 mph    
Max Gust Speed 15 mph    
Visibility 9 miles    
Events      
T = Trace of Precipitation, MM = Missing Value Source: NWS Daily Summary

Daily Weather History Graph

Daily Weather History Graph

Search for Another Location

Airport or City:

Trip Planner

Search our weather history database for the weather conditions in past years. The results will help you decide how hot, cold, wet, or windy it might be!

Date:

Astronomy

Jul. 13, 2012 Rise Set
Actual Time 6:24 AM CDT 8:30 PM CDT
Civil Twilight 5:56 AM CDT 8:57 PM CDT
Nautical Twilight 5:22 AM CDT 9:31 PM CDT
Astronomical Twilight 4:46 AM CDT 10:08 PM CDT
Moon 1:58 AM CDT (7/13) 4:02 PM CDT (7/13)
Length of Visible Light 15h 01m
Length of Day
14h 05m
Waning Crescent, 26% of the Moon is Illuminated
Jul 13
Waning Crescent
Jul 18
New
Jul 26
First Quarter
Aug 1
Full
Aug 9
Last Quarter

Hourly Weather History & Observations

Time (CDT) Temp. Heat Index Dew Point Humidity Pressure Visibility Wind Dir Wind Speed Gust Speed Precip Events Conditions
12:53 AM 73.9 °F - 72.0 °F 93% 29.95 in 10.0 mi SE 4.6 mph - N/A   Clear
1:12 AM 73.4 °F - 71.6 °F 94% 29.97 in 10.0 mi SSE 6.9 mph - N/A   Scattered Clouds
1:20 AM 73.4 °F - 71.6 °F 94% 29.98 in 10.0 mi SSE 6.9 mph - N/A   Mostly Cloudy
1:53 AM 73.0 °F - 71.1 °F 93% 29.97 in 10.0 mi SSE 4.6 mph - N/A   Overcast
2:53 AM 73.0 °F - 71.1 °F 93% 29.98 in 10.0 mi ESE 3.5 mph - N/A   Overcast
3:26 AM 73.4 °F - 71.6 °F 94% 29.99 in 10.0 mi South 5.8 mph - N/A   Overcast
3:53 AM 73.0 °F - 71.1 °F 93% 29.97 in 10.0 mi Calm Calm - N/A   Overcast
4:26 AM 73.4 °F - 71.6 °F 94% 29.99 in 10.0 mi Calm Calm - N/A   Overcast
4:53 AM 73.0 °F - 71.1 °F 93% 29.98 in 9.0 mi Calm Calm - N/A   Overcast
5:53 AM 73.9 °F - 71.1 °F 91% 29.97 in 9.0 mi Calm Calm - N/A   Scattered Clouds
6:11 AM 73.4 °F - 71.6 °F 94% 29.98 in 6.0 mi Calm Calm - N/A   Mostly Cloudy
6:53 AM 73.0 °F - 72.0 °F 96% 29.97 in 5.0 mi Calm Calm - N/A   Overcast
7:53 AM 73.9 °F - 71.1 °F 91% 30.00 in 6.0 mi NE 3.5 mph - N/A   Overcast
8:43 AM 73.4 °F - 71.6 °F 94% 30.03 in 6.0 mi North 4.6 mph - N/A   Overcast
8:53 AM 75.0 °F - 71.1 °F 87% 30.01 in 7.0 mi North 4.6 mph - N/A   Overcast
9:22 AM 77.0 °F - 71.6 °F 83% 30.03 in 10.0 mi NE 4.6 mph - N/A   Mostly Cloudy
9:53 AM 77.0 °F - 70.0 °F 79% 30.01 in 10.0 mi ENE 5.8 mph - N/A   Mostly Cloudy
10:53 AM 78.1 °F - 70.0 °F 76% 30.01 in 10.0 mi NE 9.2 mph - N/A   Overcast
11:53 AM 82.0 °F 84.9 °F 68.0 °F 62% 30.01 in 10.0 mi NNE 4.6 mph - N/A   Mostly Cloudy
12:53 PM 82.0 °F 85.5 °F 69.1 °F 65% 30.02 in 10.0 mi NNE 6.9 mph - N/A   Overcast
1:53 PM 84.0 °F 87.8 °F 69.1 °F 61% 29.99 in 10.0 mi ENE 8.1 mph - N/A   Mostly Cloudy
2:53 PM 84.0 °F 88.4 °F 70.0 °F 63% 29.99 in 10.0 mi NE 8.1 mph - N/A   Overcast
3:53 PM 84.9 °F 89.4 °F 70.0 °F 61% 29.96 in 10.0 mi ESE 5.8 mph - N/A   Overcast
4:53 PM 86.0 °F 90.1 °F 69.1 °F 57% 29.94 in 10.0 mi East 5.8 mph - N/A   Clear
5:53 PM 86.0 °F 90.1 °F 69.1 °F 57% 29.94 in 10.0 mi East 5.8 mph - N/A   Partly Cloudy
6:53 PM 84.0 °F 87.8 °F 69.1 °F 61% 29.95 in 10.0 mi ESE 10.4 mph - N/A   Partly Cloudy
7:53 PM 82.9 °F 87.0 °F 70.0 °F 65% 29.95 in 10.0 mi SSE 6.9 mph - N/A   Clear
8:53 PM 80.1 °F 83.6 °F 71.1 °F 74% 29.95 in 10.0 mi ESE 6.9 mph - N/A   Clear
9:53 PM 79.0 °F - 72.0 °F 79% 29.96 in 10.0 mi ESE 3.5 mph - N/A   Clear
10:53 PM 77.0 °F - 72.0 °F 84% 29.97 in 10.0 mi East 4.6 mph - N/A   Clear
11:53 PM 75.9 °F - 71.1 °F 85% 29.99 in 7.0 mi East 3.5 mph - N/A   Clear